This is the latest recevied weather packets stored in our database for station/object JE7UPL-13. If no packets are shown the sender has not sent any weather packets the latest 10 day(s).
| Time | Temp. | Humidity | Pressure | Rain* | Wind** | Luminosity | Snow |
|---|---|---|---|---|---|---|---|
| 1777919406 | 8.33° C | 65% | 1008.8 hPa | 0 mm | - | - | - |
| 1777918505 | 8.33° C | 66% | 1008.5 hPa | 0 mm | - | - | - |
| 1777917606 | 8.33° C | 70% | 1007.8 hPa | 0 mm | - | - | - |
| 1777916705 | 8.33° C | 73% | 1007.4 hPa | 0 mm | - | - | - |
| 1777915805 | 8.33° C | 73% | 1006.9 hPa | 0 mm | - | - | - |
| 1777914905 | 8.33° C | 73% | 1006.5 hPa | 0 mm | - | - | - |
| 1777914005 | 8.33° C | 73% | 1006.1 hPa | 0 mm | - | - | - |
| 1777913105 | 8.33° C | 74% | 1005.7 hPa | 0 mm | - | - | - |
| 1777912205 | 8.33° C | 77% | 1005.1 hPa | 0 mm | - | - | - |
| 1777911306 | 8.33° C | 80% | 1004.6 hPa | 0 mm | - | - | - |
| 1777910405 | 7.78° C | 83% | 1004.2 hPa | 0 mm | - | - | - |
| 1777909505 | 7.78° C | 85% | 1003.8 hPa | 0 mm | - | - | - |
| 1777908605 | 7.78° C | 85% | 1003.5 hPa | 0 mm | - | - | - |
| 1777907705 | 7.78° C | 86% | 1003.3 hPa | 0 mm | - | - | - |
| 1777906810 | 7.78° C | 87% | 1002.9 hPa | 0 mm | - | - | - |
| 1777905905 | 7.78° C | 87% | 1002.4 hPa | 0 mm | - | - | - |
| 1777905006 | 7.78° C | 85% | 1002 hPa | 0 mm | - | - | - |
| 1777904106 | 7.78° C | 86% | 1001.4 hPa | 0 mm | - | - | - |
| 1777903206 | 7.78° C | 83% | 1001.3 hPa | 0 mm | - | - | - |
| 1777902306 | 8.33° C | 85% | 1000.6 hPa | 0 mm | - | - | - |
| 1777901405 | 8.33° C | 85% | 999.9 hPa | 0 mm | - | - | - |
| 1777900506 | 8.89° C | 82% | 999.3 hPa | 0 mm | - | - | - |
| 1777899606 | 9.44° C | 82% | 998.6 hPa | 0 mm | - | - | - |
| 1777898706 | 9.44° C | 86% | 997.8 hPa | 0 mm | - | - | - |
| 1777897806 | 9.44° C | 86% | 997.3 hPa | 0 mm | - | - | - |
* Rain latest hour (hover to see other rain measurements)
** Current wind speed in m/s (hover to see current wind gust speed)